When you browse on this site, cookies collect data to enhance your experience and personalize the content and advertising you see.
Visit our Privacy Policy to learn more. By continuing to use the site, you agree to this use of cookies and data.

Meteo pe oră la Dziegietnia

Astăzi, 24 Septembrie, Joi

Timp Temperatura Precipitaţii Vânt Presiune Umiditate
00:00 +16°C° 0 mm 3 m/s 740 mmHg 74%
01:00 +16°C° 0 mm 3 m/s 740 mmHg 75%
02:00 +16°C° 0 mm 3 m/s 740 mmHg 76%
03:00 +14°C° 0 mm 3 m/s 740 mmHg 76%
04:00 +14°C° 0 mm 3 m/s 740 mmHg 77%
05:00 +16°C° 0 mm 3 m/s 740 mmHg 75%
06:00 +16°C° 0 mm 3 m/s 740 mmHg 73%
07:00 +17°C° 0 mm 4 m/s 740 mmHg 71%
08:00 +19°C° 0 mm 4 m/s 740 mmHg 66%
09:00 +20°C° 0 mm 4 m/s 740 mmHg 61%
10:00 +22°C° 0 mm 4 m/s 740 mmHg 56%
11:00 +23°C° 0 mm 4 m/s 740 mmHg 53%
12:00 +25°C° 0 mm 3 m/s 740 mmHg 51%
13:00 +26°C° 0 mm 3 m/s 740 mmHg 48%
14:00 +25°C° 0 mm 3 m/s 740 mmHg 52%
15:00 +24°C° 0 mm 2 m/s 740 mmHg 56%
16:00 +23°C° 0 mm 2 m/s 740 mmHg 60%
17:00 +21°C° 0.2 mm 2 m/s 740 mmHg 64%
18:00 +19°C° 0.2 mm 2 m/s 740 mmHg 67%
19:00 +18°C° 0.2 mm 2 m/s 740 mmHg 71%
20:00 +18°C° 0.4 mm 2 m/s 740 mmHg 74%
21:00 +17°C° 0.4 mm 2 m/s 740 mmHg 77%
22:00 +17°C° 0.4 mm 2 m/s 740 mmHg 80%
23:00 +17°C° 0 mm 2 m/s 740 mmHg 82%

Mâine, 25 Septembrie, Vineri

Timp Temperatura Precipitaţii Vânt Presiune Umiditate
00:00 +16°C° 0 mm 2 m/s 739 mmHg 84%
01:00 +16°C° 0 mm 2 m/s 739 mmHg 86%
02:00 +16°C° 0 mm 2 m/s 739 mmHg 87%
03:00 +15°C° 0 mm 2 m/s 739 mmHg 88%
04:00 +14°C° 0 mm 3 m/s 738 mmHg 89%
05:00 +16°C° 0 mm 3 m/s 738 mmHg 87%
06:00 +15°C° 0 mm 4 m/s 738 mmHg 85%
07:00 +16°C° 0 mm 5 m/s 737 mmHg 82%
08:00 +17°C° 0 mm 5 m/s 737 mmHg 75%
09:00 +20°C° 0 mm 6 m/s 737 mmHg 68%
10:00 +22°C° 0 mm 7 m/s 737 mmHg 61%
11:00 +23°C° 0 mm 7 m/s 736 mmHg 58%
12:00 +24°C° 0 mm 7 m/s 736 mmHg 55%
13:00 +24°C° 0 mm 7 m/s 735 mmHg 52%
14:00 +24°C° 0.1 mm 7 m/s 735 mmHg 55%
15:00 +23°C° 0.1 mm 6 m/s 735 mmHg 57%
16:00 +23°C° 0.1 mm 5 m/s 734 mmHg 60%
17:00 +22°C° 0.3 mm 5 m/s 734 mmHg 65%
18:00 +20°C° 0.3 mm 5 m/s 734 mmHg 70%
19:00 +19°C° 0.3 mm 5 m/s 734 mmHg 74%
20:00 +19°C° 0.5 mm 5 m/s 734 mmHg 77%
21:00 +19°C° 0.5 mm 5 m/s 734 mmHg 79%
22:00 +18°C° 0.5 mm 4 m/s 734 mmHg 81%
23:00 +18°C° 0.2 mm 4 m/s 734 mmHg 83%

Poimâine, 26 Septembrie, Sâmbătă

Timp Temperatura Precipitaţii Vânt Presiune Umiditate
00:00 +17°C° 0.2 mm 3 m/s 734 mmHg 85%
01:00 +17°C° 0.2 mm 3 m/s 734 mmHg 86%
02:00 +17°C° 0 mm 3 m/s 733 mmHg 86%
03:00 +17°C° 0 mm 3 m/s 733 mmHg 85%
04:00 +17°C° 0 mm 4 m/s 733 mmHg 85%
05:00 +17°C° 0 mm 4 m/s 733 mmHg 84%
06:00 +17°C° 0 mm 4 m/s 733 mmHg 83%
07:00 +17°C° 0 mm 4 m/s 733 mmHg 82%
08:00 +17°C° 0 mm 5 m/s 733 mmHg 80%
09:00 +17°C° 0 mm 5 m/s 733 mmHg 77%
10:00 +19°C° 0 mm 5 m/s 733 mmHg 75%
11:00 +20°C° 0 mm 6 m/s 733 mmHg 72%
12:00 +21°C° 0 mm 6 m/s 733 mmHg 70%
13:00 +22°C° 0 mm 7 m/s 733 mmHg 67%
14:00 +22°C° 0 mm 7 m/s 733 mmHg 67%
15:00 +22°C° 0 mm 6 m/s 733 mmHg 66%
16:00 +22°C° 0 mm 6 m/s 733 mmHg 66%
17:00 +21°C° 0.3 mm 6 m/s 733 mmHg 67%
18:00 +21°C° 0.3 mm 6 m/s 733 mmHg 69%
19:00 +20°C° 0.3 mm 7 m/s 733 mmHg 70%
20:00 +21°C° 0 mm 7 m/s 733 mmHg 66%
21:00 +21°C° 0 mm 7 m/s 733 mmHg 62%
22:00 +21°C° 0 mm 8 m/s 733 mmHg 58%
23:00 +20°C° 0 mm 7 m/s 733 mmHg 59%

27 Septembrie, Duminică

Timp Temperatura Precipitaţii Vânt Presiune Umiditate
00:00 +20°C° 0 mm 7 m/s 732 mmHg 59%
01:00 +18°C° 0 mm 7 m/s 732 mmHg 59%
02:00 +18°C° 0 mm 7 m/s 732 mmHg 59%
03:00 +18°C° 0 mm 8 m/s 732 mmHg 59%
04:00 +18°C° 0 mm 8 m/s 732 mmHg 58%
05:00 +18°C° 0 mm 8 m/s 732 mmHg 59%
06:00 +18°C° 0 mm 9 m/s 732 mmHg 60%
07:00 +19°C° 0 mm 9 m/s 732 mmHg 61%
08:00 +19°C° 0 mm 9 m/s 732 mmHg 61%
09:00 +19°C° 0 mm 9 m/s 732 mmHg 61%
10:00 +19°C° 0 mm 9 m/s 732 mmHg 61%
11:00 +19°C° 0 mm 10 m/s 732 mmHg 60%
12:00 +19°C° 0 mm 10 m/s 732 mmHg 59%
13:00 +19°C° 0 mm 10 m/s 733 mmHg 59%
14:00 +19°C° 0 mm 10 m/s 733 mmHg 63%
15:00 +18°C° 0 mm 10 m/s 733 mmHg 68%
16:00 +17°C° 0 mm 10 m/s 733 mmHg 73%
17:00 +17°C° 0.1 mm 9 m/s 733 mmHg 74%
18:00 +17°C° 0.1 mm 8 m/s 734 mmHg 75%
19:00 +17°C° 0.1 mm 8 m/s 734 mmHg 76%
20:00 +16°C° 0 mm 7 m/s 734 mmHg 79%
21:00 +15°C° 0 mm 6 m/s 735 mmHg 81%
22:00 +13°C° 0 mm 5 m/s 735 mmHg 84%
23:00 +13°C° 0 mm 5 m/s 736 mmHg 83%

28 Septembrie, Luni

Timp Temperatura Precipitaţii Vânt Presiune Umiditate
00:00 +12°C° 0 mm 4 m/s 736 mmHg 82%
01:00 +12°C° 0 mm 4 m/s 737 mmHg 81%
02:00 +12°C° 0 mm 4 m/s 737 mmHg 79%
03:00 +11°C° 0 mm 4 m/s 737 mmHg 78%
04:00 +11°C° 0 mm 3 m/s 738 mmHg 77%
05:00 +11°C° 0 mm 4 m/s 738 mmHg 77%
06:00 +11°C° 0 mm 4 m/s 739 mmHg 77%
07:00 +11°C° 0 mm 4 m/s 739 mmHg 77%
08:00 +11°C° 0 mm 4 m/s 739 mmHg 71%
09:00 +12°C° 0 mm 4 m/s 740 mmHg 65%
10:00 +13°C° 0 mm 4 m/s 740 mmHg 60%
11:00 +14°C° 0 mm 5 m/s 740 mmHg 58%
12:00 +15°C° 0 mm 5 m/s 741 mmHg 56%
13:00 +15°C° 0 mm 5 m/s 741 mmHg 54%
14:00 +15°C° 0 mm 5 m/s 741 mmHg 54%
15:00 +15°C° 0 mm 4 m/s 741 mmHg 55%
16:00 +15°C° 0 mm 4 m/s 741 mmHg 56%
17:00 +13°C° 0 mm 3 m/s 741 mmHg 59%
18:00 +12°C° 0 mm 3 m/s 741 mmHg 63%
19:00 +12°C° 0 mm 2 m/s 741 mmHg 66%
20:00 +10°C° 0 mm 2 m/s 741 mmHg 68%
21:00 +10°C° 0 mm 3 m/s 741 mmHg 69%
22:00 +10°C° 0 mm 3 m/s 741 mmHg 70%
23:00 +10°C° 0 mm 3 m/s 741 mmHg 71%

29 Septembrie, Marţi

Timp Temperatura Precipitaţii Vânt Presiune Umiditate
00:00 +10°C° 0 mm 3 m/s 741 mmHg 71%
01:00 +10°C° 0 mm 3 m/s 741 mmHg 72%
02:00 +10°C° 0 mm 3 m/s 740 mmHg 73%
03:00 +11°C° 0 mm 3 m/s 740 mmHg 75%
04:00 +11°C° 0 mm 3 m/s 739 mmHg 76%
05:00 +11°C° 1.2 mm 4 m/s 739 mmHg 82%
06:00 +11°C° 1.2 mm 4 m/s 739 mmHg 88%
07:00 +11°C° 1.2 mm 4 m/s 738 mmHg 94%
08:00 +11°C° 1.4 mm 4 m/s 738 mmHg 94%
09:00 +11°C° 1.4 mm 4 m/s 738 mmHg 94%
10:00 +12°C° 1.4 mm 4 m/s 738 mmHg 94%
11:00 +12°C° 1.9 mm 3 m/s 738 mmHg 92%
12:00 +13°C° 1.9 mm 3 m/s 738 mmHg 91%
13:00 +14°C° 1.9 mm 3 m/s 738 mmHg 89%
14:00 +15°C° 0.4 mm 2 m/s 738 mmHg 89%
15:00 +14°C° 0.4 mm 2 m/s 739 mmHg 89%
16:00 +14°C° 0.4 mm 1 m/s 739 mmHg 90%
17:00 +14°C° 0.1 mm 2 m/s 739 mmHg 91%
18:00 +12°C° 0.1 mm 3 m/s 739 mmHg 92%
19:00 +12°C° 0.1 mm 3 m/s 739 mmHg 93%
20:00 +12°C° 0 mm 3 m/s 740 mmHg 94%
21:00 +12°C° 0 mm 3 m/s 740 mmHg 94%
22:00 +11°C° 0 mm 4 m/s 740 mmHg 95%
23:00 +11°C° 0 mm 3 m/s 740 mmHg 94%
Arată mai mult